Location: Gälforsberget
(66.6500°N, 22.4167°E)
Time: 06:38:32
(UTC+00:00)

Cosmos 1400 Rocket - Pass Details

Date: 11 April 2026
Orbit: 474 x 505 km, 81.1° (Epoch: 12 May)

Event Time Altitude Azimuth Distance (km) Brightness Sun altitude
Exits shadow 21:03:46 - 211° (SSW) 1,690 5.0 -13.1°
Reaches altitude 10° 21:03:52 10° 211° (SSW) 1,650 4.9 -13.1°
Maximum altitude 21:07:27 68° 295° (WNW) 520 2.8 -13.2°
Drops below altitude 10° 21:11:05 10° 20° (NNE) 1,665 6.0 -13.4°
Sets 21:13:13 0° 23° (NNE) 2,551 7.0 -13.4°
